Weather Roundup
Issued by NWS Chicago, IL

Home | Current Version | Previous Version | Graphics & Text | Print | Product List | Glossary On
Versions: 1 2 3 4 5 6 7 8 9 10 11 12 13 14 15 16 17 18 19 20 21 22 23 24 25 26 27 28 29 30 31 32 33 34 35 36 37 38 39 40 41 42 43 44 45 46 47 48 49 50
000
NZUS59 KLOT 042001
HRRLOT

CHICAGO AREA WEATHER ROUNDUP
NATIONAL WEATHER SERVICE CHICAGO/ROMEOVILLE IL
300 PM CDT FRI SEP 04 2015

NOTE: "FAIR" INDICATES FEW OR NO CLOUDS BELOW 12,000 FEET WITH NO
SIGNIFICANT WEATHER AND/OR OBSTRUCTIONS TO VISIBILITY.

* THESE STATIONS ARE NOT UNDER NWS QUALITY CONTROL. THEY ALSO MAY NOT
  REPORT WEATHER SUCH AS PRECIPITATION OR FOG.

ILZ005-006-012>014-019>023-042100-
NORTHEAST ILLINOIS

CITY           SKY/WX    TMP DP  RH WIND       PRES   REMARKS
OHARE          MOSUNNY   83  68  60 NE13      30.00S HX  86
MIDWAY         MOSUNNY   82  68  62 E12       30.01R HX  85
AURORA         SUNNY     88  73  61 W6        30.01S HX  95
LANSING*       PTSUNNY   82  69  64 NE10      30.01S HX  86
WAUKEGAN       MOSUNNY   74  66  76 E8        30.02F
DUPAGE AIRPORT SUNNY     86  70  58 CALM      30.00S HX  90
WHEELING       MOSUNNY   77  66  68 E8        30.03S
NORTHERLY IS     N/A     72  66  81 NE6         N/A
$$

WIZ051-052-058>065-066-070>072-042100-
SOUTHEAST WISCONSIN

CITY           SKY/WX    TMP DP  RH WIND       PRES   REMARKS
MILWAUKEE      MOSUNNY   74  66  76 NE9       30.03S
KENOSHA*       SUNNY     73  65  75 E10       30.04R
RACINE*        PTSUNNY   75  65  70 NE9       30.05R
WAUKESHA       MOSUNNY   79  64  61 CALM      30.04S HX  81
$$

INZ001>003-010>013-019-020-042100-
NORTHWEST INDIANA

CITY           SKY/WX    TMP DP  RH WIND       PRES   REMARKS
GARY*          PTSUNNY   77  68  73 NE6       30.03R
MICHIGAN CITY* NOT AVBL
RENSSELAER*    NOT AVBL
$$

LMZ740>746-042100-
SOUTHERN LAKE MICHIGAN

STATION/POSITION TIME  SKY/WX   TEMP WIND        PRES    VSBY
                                AIR  DIR/SP/G
                 (UTC)          (F)  (DEG/KT/KT) (MB)    (MI)
HARRISON CRIB    1900            69   10/  9/ 11   N/A
BURNHAM HARBOR   2000            71   40/  8/ 10   N/A
CALUMET HARBOR   1900            73  360/  7/ 10   N/A
BURNS HARBOR     1900            74   50/  9/ 10 1017.3F
MICHIGAN CITY    1900            71  360/  7/  9   N/A
$$

ABBREVIATIONS USED IN REMARKS
   TC - TEMPERATURE IN CELSIUS
  WCI - WIND CHILL INDEX
   HX - HEAT INDEX
  VSB - VISIBILITY
$$



USA.gov is the U.S. government's official web portal to all federal, state and local government web resources and services.